ニェウイミン第3彗星

42P/Neujmin 3 (2004)

English version
Home page
Total 6,336 html files since Dec. 4, 1995
Updated on November 20, 2004

---------------------------------------------------------------------

・ プロフィール

・ 写真集

・ 軌道要素

The following orbital elements are taken from MPC 52321: 

Epoch 2004 July 14.0 TT = JDT 2453200.5
T 2004 July 15.9461 TT                                  MPC
q   2.014867             (2000.0)            P               Q
n   0.0921084      Peri.  147.1607      +0.4631062      +0.8856370
a   4.855902       Node   150.3851      -0.8274241      +0.4459056
e   0.585068       Incl.    3.9856      -0.3176507      +0.1296736
P  10.7
From 66 observations 1929-2004, mean residual 1".1.  Nongravitational
     parameters A1 = +1.37, A2 = +0.0339.

・ 星図

・ 光度変化

        m1 = 12.5 + 5 logΔ + 12.8 log r

---------------------------------------------------------------------

軌道要素はMPCのEphemerides and Orbital Elementsに掲載されたものです。
星図は StellaNavigator Ver.2.0 for Windows (アストロアーツ 編著 / アスキー出版局刊) で作成したものです。
光度グラフはComet for Windowsで作成したものです。

---------------------------------------------------------------------

Copyright(C) 1995-2008 Seiichi Yoshida (comet@aerith.net). All rights reserved.